Location: *
(58.7167°N, 26.1833°E)
Time: 07:51:58
(UTC+00:00)

Cosmos 2322 Rocket - Pass Details

Date: 25 August 2019
Orbit: 834 x 849 km, 71.0° (Epoch: 16 October)

Event Time Altitude Azimuth Distance (km) Brightness Sun altitude
Rises 20:47:13 0° 322° (NW) 3,405 6.8 -18.3°
Reaches altitude 10° 20:49:48 10° 315° (NW) 2,465 5.7 -18.4°
Maximum altitude 20:55:00 40° 248° (WSW) 1,223 3.0 -18.7°
Enters shadow 20:57:33 26° 198° (SSW) 1,605 3.2 -18.8°
